Location: Unspecified
(0.0000°N, 0.0000°E)
Time: 01:30:10
(UTC+00:00)

Explorer 11/Cluster Stage 4 - Pass Details

Date: 25 November 2019
Orbit: 467 x 1259 km, 28.8° (Epoch: 11 December)

Event Time Altitude Azimuth Distance (km) Brightness Sun altitude
Rises 13:17:12 0° 247° (WSW) 2,744 9.8 59.7°
Reaches altitude 10° 13:19:39 10° 252° (WSW) 1,758 9.0 59.3°
Maximum altitude 13:23:30 52° 329° (NNW) 605 6.7 58.6°
Drops below altitude 10° 13:27:01 10° 46° (NE) 1,606 8.0 57.9°
Sets 13:29:10 0° 52° (NE) 2,477 8.8 57.5°
